Tracking 26492 objects as of 8-Dec-2022
HD Live streaming from Space Station
objects crossing your sky now

USA 43

Track USA 43 now!
USA 43 is classified as:


NORAD ID: 20202
Int'l Code: 1989-069A
Perigee: 36,196.3 km
Apogee: 36,334.1 km
Inclination: 14.2 °
Period: 1,460.2 minutes
Semi major axis: 42636 km
RCS: Unknown
Launch date: September 4, 1989
Source: United States (US)
Launch site: AIR FORCE EASTERN TEST RANGE (AFETR)
aabbcc
Your satellite tracking list
Your tracking list is empty




NASA's NSSDC Master Catalog

Two Line Element Set (TLE):
1 20202U 89069A   22341.80033508 -.00000219  00000-0  00000-0 0  9990
2 20202  14.1722 345.5760 0016161 231.9404 135.5452  0.98613335 13112
Source of the keplerian elements: McCants